Location: Camp Crooked Creek
(37.9149°N, 85.6607°W)
Time: 21:29:17
(UTC-04:00)

Daily predictions for brighter satellites

Satellite Brightness Start Highest point End
(mag) Time Altitude Azimuth Time Altitude Azimuth Time Altitude Azimuth
ISS -2.2 19:48:21 10° SSW 19:51:07 26° SE 19:53:55 10° ENE
Cosmos 1544 4.5 19:53:07 10° SE 19:55:48 19° E 19:58:30 10° NE
Okean 3 Rocket 3.7 19:53:17 10° N 19:57:52 86° W 20:02:24 10° S
SL-8 R/B 3.9 19:54:04 10° SW 19:58:44 57° SE 20:03:26 10° ENE
Timation 1 Rocket 4.3 19:53:24 10° NNW 19:59:23 72° ENE 20:05:19 10° SSE
Cosmos 2056 Rocket 3.9 19:55:30 10° NNW 20:00:55 72° WSW 20:06:18 10° S
SL-16 R/B 2.7 19:55:35 10° SSW 20:01:13 66° WNW 20:06:54 10° NNE
SAR-Lupe-4 3.6 19:58:57 10° SSE 20:02:26 55° ENE 20:05:57 10° N
Cosmos 1766 3.4 19:59:52 10° S 20:03:48 85° W 20:07:49 10° N
Resurs 01 Rocket 2.5 20:01:43 10° SE 20:05:34 30° ENE 20:09:27 10° N
Cosmos 1378 3.1 20:04:55 10° N 20:08:39 87° W 20:12:23 10° S
Atlas Centaur 2 4.4 20:01:22 10° W 20:08:44 33° SSW 20:15:57 10° SE
HJ-1C 4.4 20:06:27 10° SE 20:09:18 26° ENE 20:12:11 10° NNE
USA 215 3.5 20:09:27 10° NE 20:15:48 51° SE 20:22:06 10° SSW
COSMO-SKYMED 1 4.0 20:17:27 10° N 20:21:33 42° WNW 20:25:38 10° SW
FREGAT/IRIS 2.6 20:19:24 10° SSE 20:22:28 66° ENE 20:25:32 10° N
Meteor 1-28 Rocket 3.2 20:19:48 10° N 20:23:32 87° WNW 20:27:14 10° SSW
Abrixas 2.6 20:21:38 10° WSW 20:24:36 70° NNW 20:26:59 15° NE
Nadezhda 4 Rocket 4.3 20:18:49 10° N 20:24:48 45° ENE 20:30:40 10° SSE
Helios 1B rocket 2.6 20:20:58 10° NNE 20:24:57 48° E 20:28:56 10° S
H-2A R/B 4.1 20:28:08 19° E 20:28:41 20° ENE 20:31:32 10° NNE
Cosmos 1805 3.2 20:27:05 10° S 20:31:00 88° E 20:34:58 10° N
CZ-4B DEB 4.1 20:31:56 22° ENE 20:31:57 22° ENE 20:34:34 10° NNE
SeaSat 1 4.3 20:34:29 13° SE 20:34:29 13° SE 20:35:24 10° SE
Cosmos 1092 Rocket 4.4 20:28:01 10° N 20:33:44 38° ENE 20:39:22 10° SE
Cosmos 1346 3.2 20:31:36 10° N 20:34:29 46° E 20:36:08 21° SE
GPS 2-04 Rocket1 2.9 20:31:55 10° WSW 20:35:13 44° SSE 20:36:40 27° ESE
Gbstr 26 Del rocket 3.3 20:31:58 10° SSW 20:36:06 51° SE 20:39:48 17° ENE
Cosmos 1953 2.5 20:34:32 10° SSW 20:38:30 73° W 20:42:30 10° N
Cosmos 1943 Rocket 3.9 20:36:11 10° NNE 20:38:58 14° NE 20:39:37 13° ENE
Cosmos 1766 Rocket 3.8 20:35:39 10° NNW 20:40:00 70° W 20:44:18 10° S
Cosmos 1076 Rocket 4.3 20:35:46 10° NNW 20:40:01 56° W 20:44:16 10° S
NOAA 12 4.4 20:35:37 10° S 20:40:50 71° WSW 20:46:08 10° NNW
Cosmos 1943 3.5 20:37:25 10° S 20:42:41 42° ESE 20:47:57 10° NE
Meteor 1-29 2.9 20:39:11 10° NNE 20:42:41 65° ESE 20:46:08 10° S
Cosmos 2369 Rocket 3.0 20:38:12 10° N 20:43:15 32° ENE 20:45:20 25° E
Cosmos-2242 3.3 20:42:26 10° SSW 20:46:46 70° W 20:51:10 10° N
Cosmos 1634 Rocket 4.3 20:42:02 10° SSE 20:47:47 40° E 20:53:31 10° NNE
Cosmos 1603 4.0 20:43:09 10° SSW 20:48:51 71° WNW 20:54:36 10° NNE
Cosmos 2151 4.3 20:49:36 10° NNE 20:52:06 23° NE 20:52:06 23° NE
Cosmos 1733 3.4 20:49:51 10° SSE 20:53:34 47° E 20:57:18 10° NNE
Cosmos 1470 2.6 20:51:40 10° S 20:55:30 63° E 20:59:21 10° NNE
OAO 3 Rocket 3.5 20:50:53 10° W 20:55:31 55° S 20:57:20 34° SE
Cosmos 1452 Rocket 4.3 20:52:08 10° NNW 20:57:14 51° WSW 21:02:17 10° S
Cosmos 1674 2.5 21:01:14 10° N 21:05:08 79° E 21:06:19 43° SSE
ASTEX 1 3.2 21:00:25 10° N 21:05:20 73° E 21:10:12 10° S
Cosmos 1842 Rocket 3.5 21:06:45 10° S 21:11:04 81° W 21:15:26 10° N
ASTRO E2 4.5 21:08:50 10° WSW 21:11:55 21° SSW 21:12:23 21° S
Cosmos 1500 Rocket 3.5 21:08:10 10° N 21:12:38 89° E 21:14:49 30° S
Cosmos 1420 Rocket 4.4 21:12:09 10° NNW 21:17:24 63° WSW 21:21:43 15° S
CENTAUR R/B 2.4 21:11:58 10° SSW 21:17:57 89° NW 21:24:43 10° NNE
ATLAS 5 CENTAUR R/B 4.2 21:16:34 10° W 21:20:17 21° NW 21:24:14 10° N
Meteor 1-16 Rocket 4.0 21:22:42 59° ESE 21:22:53 59° E 21:28:06 10° NNE
ALOS 2.4 21:20:32 24° S 21:23:19 71° WSW 21:28:00 10° NNW
Helios 1A 4.5 21:21:53 10° SSW 21:25:45 36° W 21:29:39 10° NNW
ISS -1.5 21:24:38 10° W 21:27:25 29° NW 21:27:25 29° NW
Meteor 1-11 4.3 21:27:09 10° N 21:32:39 59° ENE 21:32:39 59° ENE
Cosmos 1627 Rocket 4.3 21:29:58 10° N 21:36:13 77° E 21:37:44 54° SSE
Envisat 4.4 21:42:35 26° NNE 21:42:35 26° NNE 21:45:03 10° N
Resurs 01 Rocket 4.0 21:38:32 10° SSW 21:42:01 22° W 21:45:32 10° NW
USA 215 4.1 21:53:08 13° NNE 21:58:42 46° NW 22:04:51 10° WSW
Cosmos 2279 Rocket 4.1 22:09:41 70° NW 22:09:41 70° NW 22:15:20 10° N
ERS-1 Rocket 4.5 22:15:36 30° NNW 22:15:36 30° NNW 22:18:07 10° NNW
Cosmos 1943 Rocket 3.4 22:17:51 10° NNW 22:21:10 37° NNW 22:21:10 37° NNW
CZ-3A R/B 4.4 21:43:40 10° SSW 22:26:09 75° SE 22:27:53 64° ENE
Cosmos 2369 Rocket 3.6 22:22:11 10° NW 22:27:10 33° WSW 22:27:10 33° WSW
